Tracking 29932 objects as of 4-Dec-2024
HD Live streaming from Space Station
objects crossing your sky now

STARLINK-30585

Track STARLINK-30585 now!
10-day predictions
STARLINK-30585 is classified as:


NORAD ID: 58063
Int'l Code: 2023-158N
Perigee: 565.4 km
Apogee: 567.0 km
Inclination: 43.0 °
Period: 95.8 minutes
Semi major axis: 6937 km
RCS: Unknown
Launch date: October 13, 2023
Source: United States (US)
Launch site: AIR FORCE EASTERN TEST RANGE (AFETR)
Your satellite tracking list
Your tracking list is empty




NASA's NSSDC Master Catalog

Two Line Element Set (TLE):
1 58063U 23158N   24338.78973223  .00001077  00000-0  94784-4 0  9993
2 58063  43.0058  14.4258 0001103 255.4253 104.6467 15.02538051 64209
Source of the keplerian elements: AFSPC